USA 40 R/B DEB, 44523

Orbit data source: Space-Track

USA 40 R/B DEB, 44523 is space debris originally from a launch on Tue, 08 Aug 1989 UTC launched from the Air Force Eastern Test Range (AFETR). Debris objects in space refer to the collection of defunct objects orbiting the Earth. Examples of debris include non-operational satellites, rocket bodies, and fragments generated from explosions, collisions, or faulty payload assembly.

Loading next visibility...
Identifier
44523, 1989-061BW
Orbit
Active
Country
Flag of USUS
Related business
Manufacturer
Unknown
Mission
Spacecraft
Bus & Motor
Unknown
Mass
Unknown
Launch date (UTC)
1989-08-08 (37 years ago)
Launch vehicle
Unknown
Launch site
Air Force Eastern Test Range (AFETR)
Object type
Payload
Rocket body
Debris
Shape & HBR
Unknown shape, 0.1 m
Radar Cross Section
Medium (>0.1 m² and <1 m²)

Expand to show TLE details & history
Last TLE update: 1 year ago

TLE from 1 year ago
0 USA 40 R/B DEB
1 44523U 89061BW  25165.88933059  .00002912  00000-0  28872-2 0  9999
2 44523  57.0296 351.5813 3107928 233.2030  94.1881  8.62919139164558
Epoch: 2025-06-14T21:20Z
TLE epoch observation values (Epoch: 2025-06-14T21:20:38.162Z)
Latitude
-0°
Longitude
127.99999°
Altitude
4,772.618 km
Speed
5.64 km/s
True Right ascension
23h 26m 19s
True Declination
0° 00' 00"
Sunlit
Object was in daylight at epoch
Visualization orbit readout
Latitude
Unknown
Longitude
Unknown
Altitude
Unknown
Speed
Unknown
Apparent Right ascension
Unknown
Apparent Declination
Unknown
Sunlit
N/A
Visualization observer readout
Local Sidereal Time
21:35:02
Azimuth
Unknown
Elevation
Unknown
Doppler factor
Unknown
Orbital elements
Apogee altitude
6,782.506 km
Perigee altitude
541.652 km
Semi-major axis
10,040.216 km
Eccentricity
0.31079
Inclination
57.0296°
RAAN
351.5813°
Arg. of periapsis
233.203°
True anomaly
126.87603°
Mean anomaly
94.1881°
Eccentric anomaly
110.8312°
Mean motion
2.15739 °/min
Orbital period
166.87 mins
BSTAR
0.0028872
Loading maneuver chart data...
Computing Atmospheric mass density...
Loading historical data...
Loading historical data...
Loading historical data...
Loading historical data...
Loading historical data...
Loading historical data...
Loading historical data...

Documentation

Showing up to 5 results
|